Time,TemperatureF,DewpointF,PressureIn,WindDirection,WindDirectionDegrees,WindSpeedMPH,WindSpeedGustMPH,Humidity,HourlyPrecipIn,Conditions,Clouds,dailyrainin,SoftwareType,DateUTC
2013-04-20 00:01:00,49.0,44.7,30.05,SW,225,4.7,4.7,85,0.00,,,0.00,WUHU216HW,2013-04-20 07:01:00,
2013-04-20 00:06:00,49.0,44.7,30.05,SW,225,6.3,6.7,85,0.00,,,0.00,WUHU216HW,2013-04-20 07:06:00,
2013-04-20 00:11:00,48.8,44.5,30.05,WSW,248,5.6,6.7,85,0.00,,,0.00,WUHU216HW,2013-04-20 07:11:00,
2013-04-20 00:16:00,48.8,44.5,30.05,SW,225,6.9,7.2,85,0.00,,,0.00,WUHU216HW,2013-04-20 07:16:00,
2013-04-20 00:21:00,48.6,44.6,30.05,SW,225,8.1,8.3,86,0.00,,,0.00,WUHU216HW,2013-04-20 07:21:00,
2013-04-20 00:26:00,48.6,44.6,30.05,SW,225,8.5,9.2,86,0.00,,,0.00,WUHU216HW,2013-04-20 07:26:00,
2013-04-20 00:31:00,48.6,44.6,30.05,SW,225,8.7,9.8,86,0.00,,,0.00,WUHU216HW,2013-04-20 07:31:00,
2013-04-20 00:36:00,48.6,44.6,30.05,WSW,248,7.6,9.8,86,0.00,,,0.00,WUHU216HW,2013-04-20 07:36:00,
2013-04-20 00:41:00,48.6,44.6,30.05,SW,225,7.6,9.4,86,0.00,,,0.00,WUHU216HW,2013-04-20 07:41:00,
2013-04-20 00:46:00,48.6,44.6,30.05,SW,225,7.8,9.2,86,0.00,,,0.00,WUHU216HW,2013-04-20 07:46:00,
2013-04-20 00:51:00,48.6,44.6,30.05,SW,225,7.6,9.2,86,0.00,,,0.00,WUHU216HW,2013-04-20 07:51:00,
2013-04-20 00:57:00,48.6,44.6,30.05,SSW,203,6.9,8.7,86,0.00,,,0.00,WUHU216HW,2013-04-20 07:57:00,
2013-04-20 01:02:00,48.6,44.6,30.05,SW,225,4.7,8.3,86,0.00,,,0.00,WUHU216HW,2013-04-20 08:02:00,
2013-04-20 01:07:00,48.6,44.6,30.06,SW,225,5.4,6.9,86,0.00,,,0.00,WUHU216HW,2013-04-20 08:07:00,
2013-04-20 01:12:00,48.6,44.3,30.07,SW,225,6.5,7.6,85,0.00,,,0.00,WUHU216HW,2013-04-20 08:12:00,
2013-04-20 01:17:00,48.6,44.3,30.07,SW,225,5.4,8.1,85,0.00,,,0.00,WUHU216HW,2013-04-20 08:17:00,
2013-04-20 01:22:00,48.6,44.3,30.06,SW,225,10.1,10.1,85,0.00,,,0.00,WUHU216HW,2013-04-20 08:22:00,
2013-04-20 01:27:00,48.6,44.3,30.06,SW,225,7.6,10.5,85,0.00,,,0.00,WUHU216HW,2013-04-20 08:27:00,
2013-04-20 01:32:00,48.4,44.4,30.07,SW,225,7.6,10.7,86,0.00,,,0.00,WUHU216HW,2013-04-20 08:32:00,
2013-04-20 01:37:00,48.4,44.4,30.07,SW,225,6.7,10.7,86,0.00,,,0.00,WUHU216HW,2013-04-20 08:37:00,
2013-04-20 01:42:00,48.2,44.6,30.06,SW,225,6.0,8.5,87,0.00,,,0.00,WUHU216HW,2013-04-20 08:42:00,
2013-04-20 01:47:00,48.2,44.6,30.06,SW,225,5.8,7.6,87,0.00,,,0.00,WUHU216HW,2013-04-20 08:47:00,
2013-04-20 01:52:00,48.2,44.6,30.06,SW,225,1.8,6.9,87,0.00,,,0.00,WUHU216HW,2013-04-20 08:52:00,
2013-04-20 01:57:00,48.2,44.6,30.07,WSW,248,1.6,5.8,87,0.00,,,0.00,WUHU216HW,2013-04-20 08:57:00,
2013-04-20 02:02:00,48.1,44.7,30.06,North,0,3.4,4.0,88,0.00,,,0.00,WUHU216HW,2013-04-20 09:02:00,
2013-04-20 02:07:00,47.9,44.6,30.07,NNW,338,1.1,3.8,88,0.00,,,0.00,WUHU216HW,2013-04-20 09:07:00,
2013-04-20 02:12:00,47.9,44.6,30.07,North,0,0.7,3.6,88,0.00,,,0.00,WUHU216HW,2013-04-20 09:12:00,
2013-04-20 02:17:00,47.9,44.6,30.07,NNE,23,2.2,3.6,88,0.00,,,0.00,WUHU216HW,2013-04-20 09:17:00,
2013-04-20 02:22:00,47.9,44.6,30.06,North,0,1.6,3.6,88,0.00,,,0.00,WUHU216HW,2013-04-20 09:22:00,
2013-04-20 02:27:00,47.9,44.6,30.06,WSW,248,2.0,3.1,88,0.00,,,0.00,WUHU216HW,2013-04-20 09:27:00,
2013-04-20 02:32:00,48.1,44.7,30.06,WSW,248,1.3,3.1,88,0.00,,,0.00,WUHU216HW,2013-04-20 09:32:00,
2013-04-20 02:37:00,48.1,44.7,30.06,North,0,0.4,2.9,88,0.00,,,0.00,WUHU216HW,2013-04-20 09:37:00,
2013-04-20 02:42:00,48.1,44.4,30.06,SSW,203,2.2,4.5,87,0.00,,,0.00,WUHU216HW,2013-04-20 09:42:00,
2013-04-20 02:47:00,48.1,44.4,30.06,WSW,248,3.6,4.5,87,0.00,,,0.00,WUHU216HW,2013-04-20 09:47:00,
2013-04-20 02:52:00,48.1,44.4,30.06,SE,135,0.9,4.5,87,0.00,,,0.00,WUHU216HW,2013-04-20 09:52:00,
2013-04-20 02:57:00,47.9,44.2,30.07,SW,225,1.1,5.4,87,0.00,,,0.00,WUHU216HW,2013-04-20 09:57:00,
2013-04-20 03:02:00,48.1,44.4,30.06,WSW,248,2.5,5.4,87,0.00,,,0.00,WUHU216HW,2013-04-20 10:02:00,
2013-04-20 03:07:00,48.2,44.3,30.06,SW,225,4.9,4.9,86,0.00,,,0.00,WUHU216HW,2013-04-20 10:07:00,
2013-04-20 03:12:00,48.2,44.3,30.07,WSW,248,4.7,4.9,86,0.00,,,0.00,WUHU216HW,2013-04-20 10:12:00,
2013-04-20 03:17:00,48.2,44.3,30.07,SW,225,5.4,6.0,86,0.00,,,0.00,WUHU216HW,2013-04-20 10:17:00,
2013-04-20 03:22:00,48.1,44.4,30.07,WSW,248,6.0,6.0,87,0.00,,,0.00,WUHU216HW,2013-04-20 10:22:00,
2013-04-20 03:27:00,48.1,44.4,30.07,WSW,248,4.9,6.3,87,0.00,,,0.00,WUHU216HW,2013-04-20 10:27:00,
2013-04-20 03:32:00,48.1,44.4,30.07,SW,225,4.0,6.3,87,0.00,,,0.00,WUHU216HW,2013-04-20 10:32:00,
2013-04-20 03:37:00,48.1,44.4,30.07,WSW,248,4.7,6.5,87,0.00,,,0.00,WUHU216HW,2013-04-20 10:37:00,
2013-04-20 03:42:00,48.1,44.4,30.07,SSW,203,5.1,6.5,87,0.00,,,0.00,WUHU216HW,2013-04-20 10:42:00,
2013-04-20 03:47:00,48.1,44.4,30.07,WSW,248,4.7,6.3,87,0.00,,,0.00,WUHU216HW,2013-04-20 10:47:00,
2013-04-20 03:52:00,48.1,44.4,30.07,WSW,248,5.8,6.9,87,0.00,,,0.00,WUHU216HW,2013-04-20 10:52:00,
2013-04-20 03:57:00,47.9,44.2,30.07,WSW,248,5.4,6.9,87,0.00,,,0.00,WUHU216HW,2013-04-20 10:57:00,
2013-04-20 04:02:00,47.9,44.2,30.07,SSW,203,4.7,6.3,87,0.00,,,0.00,WUHU216HW,2013-04-20 11:02:00,
2013-04-20 04:07:00,47.9,44.2,30.07,SW,225,4.5,6.0,87,0.00,,,0.00,WUHU216HW,2013-04-20 11:07:00,
2013-04-20 04:12:00,48.1,44.4,30.08,SW,225,3.1,6.0,87,0.00,,,0.00,WUHU216HW,2013-04-20 11:12:00,
2013-04-20 04:17:00,48.1,44.4,30.07,SW,225,4.3,5.6,87,0.00,,,0.00,WUHU216HW,2013-04-20 11:17:00,
2013-04-20 04:22:00,48.1,44.4,30.07,SW,225,4.9,6.0,87,0.00,,,0.00,WUHU216HW,2013-04-20 11:22:00,
2013-04-20 04:27:00,47.9,44.6,30.07,SW,225,5.1,6.3,88,0.00,,,0.00,WUHU216HW,2013-04-20 11:27:00,
2013-04-20 04:32:00,47.9,44.6,30.08,SW,225,4.9,6.7,88,0.00,,,0.00,WUHU216HW,2013-04-20 11:32:00,
2013-04-20 04:37:00,47.9,44.6,30.07,WSW,248,4.3,6.7,88,0.00,,,0.00,WUHU216HW,2013-04-20 11:37:00,
2013-04-20 04:42:00,47.9,44.6,30.07,SW,225,4.3,5.8,88,0.00,,,0.00,WUHU216HW,2013-04-20 11:42:00,
2013-04-20 04:47:00,47.9,44.6,30.08,SW,225,4.3,6.3,88,0.00,,,0.00,WUHU216HW,2013-04-20 11:47:00,
2013-04-20 04:52:00,47.9,44.6,30.08,SW,225,4.7,6.3,88,0.00,,,0.00,WUHU216HW,2013-04-20 11:52:00,
2013-04-20 04:57:00,47.9,44.6,30.08,SW,225,6.0,6.5,88,0.00,,,0.00,WUHU216HW,2013-04-20 11:57:00,
2013-04-20 05:02:00,47.7,44.4,30.08,SW,225,5.4,6.9,88,0.00,,,0.00,WUHU216HW,2013-04-20 12:02:00,
2013-04-20 05:07:00,47.7,44.4,30.08,SW,225,5.6,6.9,88,0.00,,,0.00,WUHU216HW,2013-04-20 12:07:00,
2013-04-20 05:12:00,47.7,44.4,30.07,WSW,248,6.3,6.7,88,0.00,,,0.00,WUHU216HW,2013-04-20 12:12:00,
2013-04-20 05:17:00,47.7,44.4,30.08,SW,225,6.5,7.2,88,0.00,,,0.00,WUHU216HW,2013-04-20 12:17:00,
2013-04-20 05:22:00,47.7,44.4,30.08,WSW,248,5.8,7.2,88,0.00,,,0.00,WUHU216HW,2013-04-20 12:22:00,
2013-04-20 05:27:00,47.7,44.4,30.08,WSW,248,6.9,6.9,88,0.00,,,0.00,WUHU216HW,2013-04-20 12:27:00,
2013-04-20 05:32:00,47.7,44.4,30.08,SW,225,6.5,6.9,88,0.00,,,0.00,WUHU216HW,2013-04-20 12:32:00,
2013-04-20 05:37:00,47.7,44.4,30.09,WSW,248,5.4,6.9,88,0.00,,,0.00,WUHU216HW,2013-04-20 12:37:00,
2013-04-20 05:42:00,47.7,44.4,30.08,SW,225,6.3,6.7,88,0.00,,,0.00,WUHU216HW,2013-04-20 12:42:00,
2013-04-20 05:47:00,47.7,44.4,30.09,WSW,248,4.7,6.3,88,0.00,,,0.00,WUHU216HW,2013-04-20 12:47:00,
2013-04-20 05:52:00,47.7,44.4,30.09,WSW,248,3.8,6.3,88,0.00,,,0.00,WUHU216HW,2013-04-20 12:52:00,
2013-04-20 05:57:00,47.7,44.4,30.09,SW,225,3.8,4.9,88,0.00,,,0.00,WUHU216HW,2013-04-20 12:57:00,
2013-04-20 06:02:00,47.7,44.0,30.09,SW,225,2.9,4.5,87,0.00,,,0.00,WUHU216HW,2013-04-20 13:02:00,
2013-04-20 06:07:00,47.7,44.0,30.09,WSW,248,3.4,4.0,87,0.00,,,0.00,WUHU216HW,2013-04-20 13:07:00,
2013-04-20 06:12:00,47.7,44.0,30.09,WSW,248,3.4,4.0,87,0.00,,,0.00,WUHU216HW,2013-04-20 13:12:00,
2013-04-20 06:17:00,47.7,44.0,30.09,SW,225,2.0,4.0,87,0.00,,,0.00,WUHU216HW,2013-04-20 13:17:00,
2013-04-20 06:22:00,47.7,44.0,30.09,WSW,248,2.9,4.0,87,0.00,,,0.00,WUHU216HW,2013-04-20 13:22:00,
2013-04-20 06:27:00,47.7,44.0,30.09,WSW,248,1.8,3.6,87,0.00,,,0.00,WUHU216HW,2013-04-20 13:27:00,
2013-04-20 06:32:00,47.7,44.0,30.09,SW,225,2.5,3.6,87,0.00,,,0.00,WUHU216HW,2013-04-20 13:32:00,
2013-04-20 06:37:00,47.7,44.0,30.09,WSW,248,1.8,2.9,87,0.00,,,0.00,WUHU216HW,2013-04-20 13:37:00,
2013-04-20 06:42:00,47.7,44.0,30.09,WSW,248,3.4,4.0,87,0.00,,,0.00,WUHU216HW,2013-04-20 13:42:00,
2013-04-20 06:48:00,47.7,44.0,30.09,SW,225,3.4,4.0,87,0.00,,,0.00,WUHU216HW,2013-04-20 13:48:00,
2013-04-20 06:53:00,47.7,44.0,30.09,SW,225,3.1,3.6,87,0.00,,,0.00,WUHU216HW,2013-04-20 13:53:00,
2013-04-20 06:58:00,47.7,44.0,30.09,WSW,248,3.1,3.8,87,0.00,,,0.00,WUHU216HW,2013-04-20 13:58:00,
2013-04-20 07:03:00,47.7,44.0,30.09,WSW,248,2.2,3.8,87,0.00,,,0.00,WUHU216HW,2013-04-20 14:03:00,
2013-04-20 07:08:00,47.7,44.0,30.09,SW,225,2.0,4.0,87,0.00,,,0.00,WUHU216HW,2013-04-20 14:08:00,
2013-04-20 07:13:00,47.7,44.0,30.09,WSW,248,3.6,4.0,87,0.00,,,0.00,WUHU216HW,2013-04-20 14:13:00,
2013-04-20 07:19:00,47.7,44.0,30.09,SW,225,4.3,4.7,87,0.00,,,0.00,WUHU216HW,2013-04-20 14:19:00,
2013-04-20 07:24:00,47.7,44.0,30.09,WSW,248,2.5,4.7,87,0.00,,,0.00,WUHU216HW,2013-04-20 14:24:00,
2013-04-20 07:31:00,47.5,43.8,30.10,SW,225,4.0,4.0,87,0.00,,,0.00,WUHU216HW,2013-04-20 14:31:00,
2013-04-20 07:36:00,47.5,43.8,30.10,SW,225,4.5,4.5,87,0.00,,,0.00,WUHU216HW,2013-04-20 14:36:00,
2013-04-20 07:41:00,47.5,43.8,30.10,WSW,248,3.8,4.9,87,0.00,,,0.00,WUHU216HW,2013-04-20 14:41:00,
2013-04-20 07:46:00,47.5,43.8,30.11,SW,225,4.9,5.1,87,0.00,,,0.00,WUHU216HW,2013-04-20 14:46:00,
2013-04-20 07:51:00,47.5,43.8,30.10,SW,225,4.7,5.1,87,0.00,,,0.00,WUHU216HW,2013-04-20 14:51:00,
2013-04-20 07:56:00,47.5,43.8,30.11,SW,225,4.7,5.1,87,0.00,,,0.00,WUHU216HW,2013-04-20 14:56:00,
2013-04-20 08:01:00,47.3,43.7,30.11,WSW,248,4.0,5.6,87,0.00,,,0.00,WUHU216HW,2013-04-20 15:01:00,
2013-04-20 08:06:00,47.3,43.4,30.11,WSW,248,3.1,5.6,86,0.00,,,0.00,WUHU216HW,2013-04-20 15:06:00,
2013-04-20 08:12:00,47.3,43.7,30.11,WSW,248,3.8,4.7,87,0.00,,,0.00,WUHU216HW,2013-04-20 15:12:00,
2013-04-20 08:17:00,47.3,43.7,30.10,SW,225,4.5,4.5,87,0.00,,,0.00,WUHU216HW,2013-04-20 15:17:00,
2013-04-20 08:22:00,47.3,43.7,30.11,SW,225,5.4,5.4,87,0.00,,,0.00,WUHU216HW,2013-04-20 15:22:00,
2013-04-20 08:27:00,47.3,43.4,30.10,SW,225,3.4,5.4,86,0.00,,,0.00,WUHU216HW,2013-04-20 15:27:00,
2013-04-20 08:32:00,47.3,43.4,30.11,WSW,248,4.7,5.4,86,0.00,,,0.00,WUHU216HW,2013-04-20 15:32:00,
2013-04-20 08:37:00,47.3,43.4,30.11,WSW,248,4.7,5.1,86,0.00,,,0.00,WUHU216HW,2013-04-20 15:37:00,
2013-04-20 08:43:00,47.3,43.4,30.11,WSW,248,3.1,5.1,86,0.00,,,0.00,WUHU216HW,2013-04-20 15:43:00,
2013-04-20 08:48:00,47.5,43.8,30.12,SW,225,3.4,4.9,87,0.00,,,0.00,WUHU216HW,2013-04-20 15:48:00,
2013-04-20 08:53:00,47.5,43.6,30.12,SW,225,4.0,4.0,86,0.00,,,0.00,WUHU216HW,2013-04-20 15:53:00,
2013-04-20 08:58:00,47.5,43.6,30.12,SW,225,2.9,4.0,86,0.00,,,0.00,WUHU216HW,2013-04-20 15:58:00,
2013-04-20 09:03:00,47.7,43.8,30.12,SW,225,2.2,4.0,86,0.00,,,0.00,WUHU216HW,2013-04-20 16:03:00,
2013-04-20 09:08:00,47.7,43.8,30.12,SW,225,3.6,4.0,86,0.00,,,0.00,WUHU216HW,2013-04-20 16:08:00,
2013-04-20 09:13:00,47.9,43.9,30.12,WSW,248,4.5,4.5,86,0.00,,,0.00,WUHU216HW,2013-04-20 16:13:00,
2013-04-20 09:18:00,47.9,43.6,30.12,SW,225,3.1,4.5,85,0.00,,,0.00,WUHU216HW,2013-04-20 16:18:00,
2013-04-20 09:23:00,47.9,43.6,30.12,SW,225,1.8,4.5,85,0.00,,,0.00,WUHU216HW,2013-04-20 16:23:00,
2013-04-20 09:28:00,48.2,43.9,30.12,WSW,248,2.9,4.0,85,0.00,,,0.00,WUHU216HW,2013-04-20 16:28:00,
2013-04-20 09:33:00,48.1,43.5,30.12,SW,225,4.5,4.7,84,0.00,,,0.00,WUHU216HW,2013-04-20 16:33:00,
2013-04-20 09:38:00,48.1,43.5,30.12,SW,225,4.7,5.1,84,0.00,,,0.00,WUHU216HW,2013-04-20 16:38:00,
2013-04-20 09:42:00,48.1,43.7,30.12,WSW,248,4.5,5.4,85,0.00,,,0.00,WUHU216HW,2013-04-20 16:42:00,
2013-04-20 09:48:00,48.2,43.9,30.12,WSW,248,3.8,5.4,85,0.00,,,0.00,WUHU216HW,2013-04-20 16:48:00,
2013-04-20 09:53:00,48.4,44.1,30.12,WSW,248,3.8,4.7,85,0.00,,,0.00,WUHU216HW,2013-04-20 16:53:00,
2013-04-20 09:57:00,48.6,44.3,30.12,SW,225,2.5,4.0,85,0.00,,,0.00,WUHU216HW,2013-04-20 16:57:00,
2013-04-20 10:02:00,48.8,44.5,30.12,WSW,248,4.0,4.0,85,0.00,,,0.00,WUHU216HW,2013-04-20 17:02:00,
2013-04-20 10:07:00,48.8,44.1,30.12,SW,225,3.4,4.3,84,0.00,,,0.00,WUHU216HW,2013-04-20 17:07:00,
2013-04-20 10:12:00,49.0,44.0,30.13,WSW,248,3.4,4.3,83,0.00,,,0.00,WUHU216HW,2013-04-20 17:12:00,
2013-04-20 10:17:00,49.1,44.5,30.13,SW,225,4.0,4.3,84,0.00,,,0.00,WUHU216HW,2013-04-20 17:17:00,
2013-04-20 10:22:00,49.0,43.7,30.13,SW,225,4.0,5.4,82,0.00,,,0.00,WUHU216HW,2013-04-20 17:22:00,
2013-04-20 10:28:00,49.0,44.0,30.13,SW,225,2.7,5.4,83,0.00,,,0.00,WUHU216HW,2013-04-20 17:28:00,
2013-04-20 10:33:00,49.1,44.1,30.13,WSW,248,3.1,5.4,83,0.00,,,0.00,WUHU216HW,2013-04-20 17:33:00,
2013-04-20 10:38:00,49.3,44.3,30.13,SW,225,3.1,3.6,83,0.00,,,0.00,WUHU216HW,2013-04-20 17:38:00,
2013-04-20 10:43:00,49.7,45.0,30.13,SW,225,2.5,3.4,84,0.00,,,0.00,WUHU216HW,2013-04-20 17:43:00,
2013-04-20 10:48:00,50.0,45.0,30.13,WSW,248,3.4,3.6,83,0.00,,,0.00,WUHU216HW,2013-04-20 17:48:00,
2013-04-20 10:53:00,50.0,45.0,30.14,SW,225,3.1,3.6,83,0.00,,,0.00,WUHU216HW,2013-04-20 17:53:00,
2013-04-20 10:58:00,50.2,44.9,30.14,SW,225,3.4,3.8,82,0.00,,,0.00,WUHU216HW,2013-04-20 17:58:00,
2013-04-20 11:03:00,50.2,45.2,30.14,WSW,248,3.4,3.8,83,0.00,,,0.00,WUHU216HW,2013-04-20 18:03:00,
2013-04-20 11:08:00,50.2,45.2,30.14,WSW,248,3.4,3.8,83,0.00,,,0.00,WUHU216HW,2013-04-20 18:08:00,
2013-04-20 11:13:00,50.4,45.4,30.14,WSW,248,3.1,3.4,83,0.00,,,0.00,WUHU216HW,2013-04-20 18:13:00,
2013-04-20 11:18:00,50.4,45.4,30.14,WSW,248,3.8,4.0,83,0.00,,,0.00,WUHU216HW,2013-04-20 18:18:00,
2013-04-20 11:23:00,50.4,45.4,30.14,WSW,248,3.4,4.0,83,0.00,,,0.00,WUHU216HW,2013-04-20 18:23:00,
2013-04-20 11:28:00,50.4,45.4,30.14,SW,225,3.4,4.0,83,0.00,,,0.00,WUHU216HW,2013-04-20 18:28:00,
2013-04-20 11:33:00,50.8,45.7,30.15,SW,225,4.0,4.3,83,0.00,,,0.00,WUHU216HW,2013-04-20 18:33:00,
2013-04-20 11:37:00,50.9,45.6,30.14,SW,225,4.7,5.8,82,0.00,,,0.00,WUHU216HW,2013-04-20 18:37:00,
2013-04-20 11:42:00,51.1,45.8,30.14,WSW,248,6.3,6.3,82,0.00,,,0.00,WUHU216HW,2013-04-20 18:42:00,
2013-04-20 11:47:00,51.3,46.0,30.14,SW,225,5.8,6.5,82,0.00,,,0.00,WUHU216HW,2013-04-20 18:47:00,
2013-04-20 11:52:00,51.7,46.4,30.14,SW,225,5.4,6.5,82,0.00,,,0.00,WUHU216HW,2013-04-20 18:52:00,
2013-04-20 11:58:00,51.8,45.9,30.14,WSW,248,5.1,6.3,80,0.00,,,0.00,WUHU216HW,2013-04-20 18:58:00,
2013-04-20 12:03:00,51.8,45.9,30.14,WSW,248,4.7,5.6,80,0.00,,,0.00,WUHU216HW,2013-04-20 19:03:00,
2013-04-20 12:07:00,52.0,45.7,30.14,WSW,248,4.7,5.4,79,0.00,,,0.00,WUHU216HW,2013-04-20 19:07:00,
2013-04-20 12:13:00,52.0,46.1,30.14,WSW,248,5.8,6.3,80,0.00,,,0.00,WUHU216HW,2013-04-20 19:13:00,
2013-04-20 12:17:00,52.0,46.1,30.14,SW,225,5.1,6.3,80,0.00,,,0.00,WUHU216HW,2013-04-20 19:17:00,
2013-04-20 12:22:00,51.8,45.9,30.14,SW,225,5.8,6.3,80,0.00,,,0.00,WUHU216HW,2013-04-20 19:22:00,
2013-04-20 12:27:00,51.7,45.7,30.14,WSW,248,4.5,6.3,80,0.00,,,0.00,WUHU216HW,2013-04-20 19:27:00,
2013-04-20 12:32:00,51.5,45.5,30.14,SW,225,4.5,6.3,80,0.00,,,0.00,WUHU216HW,2013-04-20 19:32:00,
2013-04-20 12:37:00,51.5,45.5,30.14,WSW,248,4.7,6.3,80,0.00,,,0.00,WUHU216HW,2013-04-20 19:37:00,
2013-04-20 12:42:00,51.8,46.2,30.14,WSW,248,4.3,5.4,81,0.00,,,0.00,WUHU216HW,2013-04-20 19:42:00,
2013-04-20 12:48:00,52.0,46.1,30.14,SW,225,2.5,4.7,80,0.00,,,0.00,WUHU216HW,2013-04-20 19:48:00,
2013-04-20 12:53:00,52.6,46.6,30.13,SW,225,3.1,4.3,80,0.00,,,0.00,WUHU216HW,2013-04-20 19:53:00,
2013-04-20 12:57:00,52.7,46.8,30.13,SW,225,4.0,4.5,80,0.00,,,0.00,WUHU216HW,2013-04-20 19:57:00,
2013-04-20 13:02:00,52.7,46.4,30.13,SSW,203,3.8,6.3,79,0.00,,,0.00,WUHU216HW,2013-04-20 20:02:00,
2013-04-20 13:07:00,52.6,45.9,30.13,WSW,248,3.1,6.3,78,0.00,,,0.00,WUHU216HW,2013-04-20 20:07:00,
2013-04-20 13:12:00,52.4,45.7,30.13,SW,225,5.1,8.7,78,0.00,,,0.00,WUHU216HW,2013-04-20 20:12:00,
2013-04-20 13:17:00,52.2,45.2,30.13,WSW,248,6.7,8.9,77,0.00,,,0.00,WUHU216HW,2013-04-20 20:17:00,
2013-04-20 13:25:00,51.8,45.2,30.13,SSW,203,8.5,9.6,78,0.00,,,0.00,WUHU216HW,2013-04-20 20:25:00,
2013-04-20 13:30:00,51.8,45.2,30.13,SSW,203,12.3,16.3,78,0.00,,,0.00,WUHU216HW,2013-04-20 20:30:00,
2013-04-20 13:35:00,51.8,45.2,30.12,SW,225,11.0,16.8,78,0.00,,,0.00,WUHU216HW,2013-04-20 20:35:00,
2013-04-20 13:40:00,51.7,44.7,30.12,SW,225,10.5,16.8,77,0.00,,,0.00,WUHU216HW,2013-04-20 20:40:00,
2013-04-20 13:45:00,51.5,44.6,30.12,SW,225,9.6,13.0,77,0.00,,,0.00,WUHU216HW,2013-04-20 20:45:00,
2013-04-20 13:50:00,51.5,44.6,30.12,SSW,203,13.4,15.2,77,0.00,,,0.00,WUHU216HW,2013-04-20 20:50:00,
2013-04-20 13:55:00,51.5,44.6,30.12,SW,225,11.4,15.2,77,0.00,,,0.00,WUHU216HW,2013-04-20 20:55:00,
2013-04-20 14:00:00,51.3,44.4,30.12,SW,225,12.8,15.0,77,0.00,,,0.00,WUHU216HW,2013-04-20 21:00:00,
2013-04-20 14:05:00,51.3,44.4,30.12,WSW,248,10.7,15.0,77,0.00,,,0.00,WUHU216HW,2013-04-20 21:05:00,
2013-04-20 14:10:00,51.3,44.6,30.12,SSW,203,12.1,16.6,78,0.00,,,0.00,WUHU216HW,2013-04-20 21:10:00,
2013-04-20 14:15:00,51.5,44.8,30.12,SW,225,10.5,16.6,78,0.00,,,0.00,WUHU216HW,2013-04-20 21:15:00,
2013-04-20 14:20:00,51.7,44.4,30.12,SW,225,11.6,17.4,76,0.00,,,0.00,WUHU216HW,2013-04-20 21:20:00,
2013-04-20 14:25:00,51.7,44.4,30.12,SW,225,10.1,17.4,76,0.00,,,0.00,WUHU216HW,2013-04-20 21:25:00,
2013-04-20 14:30:00,51.7,44.4,30.12,SW,225,13.4,15.2,76,0.00,,,0.00,WUHU216HW,2013-04-20 21:30:00,
2013-04-20 14:35:00,51.8,44.9,30.12,SW,225,9.2,15.0,77,0.00,,,0.00,WUHU216HW,2013-04-20 21:35:00,
2013-04-20 14:40:00,51.7,44.7,30.12,SW,225,11.4,13.4,77,0.00,,,0.00,WUHU216HW,2013-04-20 21:40:00,
2013-04-20 14:46:00,51.5,44.6,30.12,SW,225,9.2,15.0,77,0.00,,,0.00,WUHU216HW,2013-04-20 21:46:00,
2013-04-20 14:50:00,51.5,44.6,30.12,SW,225,10.5,15.0,77,0.00,,,0.00,WUHU216HW,2013-04-20 21:50:00,
2013-04-20 14:55:00,51.5,44.6,30.13,SW,225,7.6,11.9,77,0.00,,,0.00,WUHU216HW,2013-04-20 21:55:00,
2013-04-20 15:01:00,51.5,44.6,30.13,SSW,203,10.5,12.3,77,0.00,,,0.00,WUHU216HW,2013-04-20 22:01:00,
2013-04-20 15:05:00,51.7,44.7,30.13,SW,225,8.9,13.2,77,0.00,,,0.00,WUHU216HW,2013-04-20 22:05:00,
2013-04-20 15:10:00,51.5,44.6,30.13,SSW,203,8.7,13.2,77,0.00,,,0.00,WUHU216HW,2013-04-20 22:10:00,
2013-04-20 15:15:00,51.3,44.0,30.13,SSW,203,8.7,11.4,76,0.00,,,0.00,WUHU216HW,2013-04-20 22:15:00,
2013-04-20 15:20:00,51.3,44.0,30.13,SSW,203,6.7,11.0,76,0.00,,,0.00,WUHU216HW,2013-04-20 22:20:00,
2013-04-20 15:25:00,51.5,44.2,30.13,SSW,203,5.4,10.3,76,0.00,,,0.00,WUHU216HW,2013-04-20 22:25:00,
2013-04-20 15:30:00,51.8,44.6,30.13,SSW,203,12.3,14.3,76,0.00,,,0.00,WUHU216HW,2013-04-20 22:30:00,
2013-04-20 15:35:00,51.8,44.9,30.13,SSW,203,10.3,14.3,77,0.00,,,0.00,WUHU216HW,2013-04-20 22:35:00,
2013-04-20 15:40:00,51.7,44.4,30.13,SSW,203,11.9,13.4,76,0.00,,,0.00,WUHU216HW,2013-04-20 22:40:00,
2013-04-20 15:45:00,51.5,44.2,30.13,SW,225,10.3,13.4,76,0.00,,,0.00,WUHU216HW,2013-04-20 22:45:00,
2013-04-20 15:51:00,51.7,44.7,30.13,SSW,203,9.2,12.1,77,0.00,,,0.00,WUHU216HW,2013-04-20 22:51:00,
2013-04-20 15:56:00,51.8,44.6,30.12,SSW,203,6.9,12.1,76,0.00,,,0.00,WUHU216HW,2013-04-20 22:56:00,
2013-04-20 16:01:00,52.0,44.4,30.12,SW,225,6.3,12.1,75,0.00,,,0.00,WUHU216HW,2013-04-20 23:01:00,
2013-04-20 16:06:00,52.2,44.6,30.12,SSW,203,6.7,10.3,75,0.00,,,0.00,WUHU216HW,2013-04-20 23:06:00,
2013-04-20 16:10:00,52.2,44.6,30.12,SSW,203,6.9,10.3,75,0.00,,,0.00,WUHU216HW,2013-04-20 23:10:00,
2013-04-20 16:16:00,52.2,44.2,30.12,SSW,203,6.3,10.5,74,0.00,,,0.00,WUHU216HW,2013-04-20 23:16:00,
2013-04-20 16:20:00,52.4,44.4,30.12,SSW,203,6.9,10.5,74,0.00,,,0.00,WUHU216HW,2013-04-20 23:20:00,
2013-04-20 16:25:00,52.4,44.4,30.12,SSW,203,4.5,8.3,74,0.00,,,0.00,WUHU216HW,2013-04-20 23:25:00,
2013-04-20 16:30:00,52.2,44.2,30.12,SSW,203,8.3,8.3,74,0.00,,,0.00,WUHU216HW,2013-04-20 23:30:00,
2013-04-20 16:35:00,52.2,44.6,30.12,SSW,203,5.4,8.3,75,0.00,,,0.00,WUHU216HW,2013-04-20 23:35:00,
2013-04-20 16:40:00,52.2,44.6,30.12,SSW,203,3.6,7.8,75,0.00,,,0.00,WUHU216HW,2013-04-20 23:40:00,
2013-04-20 16:45:00,52.2,44.6,30.12,SSW,203,9.2,9.8,75,0.00,,,0.00,WUHU216HW,2013-04-20 23:45:00,
2013-04-20 16:50:00,52.0,44.4,30.12,SSW,203,5.6,11.2,75,0.00,,,0.00,WUHU216HW,2013-04-20 23:50:00,
2013-04-20 16:55:00,51.8,44.6,30.11,SSW,203,8.9,11.2,76,0.00,,,0.00,WUHU216HW,2013-04-20 23:55:00,
2013-04-20 17:00:00,52.0,44.0,30.11,SW,225,9.2,14.3,74,0.00,,,0.00,WUHU216HW,2013-04-21 00:00:00,
2013-04-20 17:05:00,52.2,43.8,30.11,SSW,203,9.6,14.3,73,0.00,,,0.00,WUHU216HW,2013-04-21 00:05:00,
2013-04-20 17:10:00,52.4,44.0,30.11,SSW,203,6.9,10.1,73,0.00,,,0.00,WUHU216HW,2013-04-21 00:10:00,
2013-04-20 17:15:00,52.6,43.8,30.11,SW,225,6.9,9.6,72,0.00,,,0.00,WUHU216HW,2013-04-21 00:15:00,
2013-04-20 17:20:00,52.6,43.5,30.11,SW,225,8.1,10.1,71,0.00,,,0.00,WUHU216HW,2013-04-21 00:20:00,
2013-04-20 17:25:00,52.7,44.0,30.11,SW,225,4.9,10.1,72,0.00,,,0.00,WUHU216HW,2013-04-21 00:25:00,
2013-04-20 17:30:00,52.7,44.0,30.11,SW,225,4.7,9.4,72,0.00,,,0.00,WUHU216HW,2013-04-21 00:30:00,
2013-04-20 17:35:00,52.6,43.8,30.11,SW,225,3.6,6.3,72,0.00,,,0.00,WUHU216HW,2013-04-21 00:35:00,
2013-04-20 17:40:00,52.7,44.0,30.11,SW,225,3.6,4.9,72,0.00,,,0.00,WUHU216HW,2013-04-21 00:40:00,
2013-04-20 17:45:00,52.7,44.4,30.11,SSW,203,4.3,4.9,73,0.00,,,0.00,WUHU216HW,2013-04-21 00:45:00,
2013-04-20 17:50:00,52.7,44.4,30.11,WSW,248,5.1,5.4,73,0.00,,,0.00,WUHU216HW,2013-04-21 00:50:00,
2013-04-20 17:55:00,52.7,44.4,30.10,SW,225,4.7,5.4,73,0.00,,,0.00,WUHU216HW,2013-04-21 00:55:00,
2013-04-20 18:00:00,52.7,44.4,30.10,SW,225,4.3,5.4,73,0.00,,,0.00,WUHU216HW,2013-04-21 01:00:00,
2013-04-20 18:05:00,52.6,44.2,30.11,SW,225,3.4,5.1,73,0.00,,,0.00,WUHU216HW,2013-04-21 01:05:00,
2013-04-20 18:10:00,52.7,44.7,30.11,SW,225,3.6,5.4,74,0.00,,,0.00,WUHU216HW,2013-04-21 01:10:00,
2013-04-20 18:15:00,52.9,44.2,30.11,WSW,248,6.5,6.5,72,0.00,,,0.00,WUHU216HW,2013-04-21 01:15:00,
2013-04-20 18:20:00,52.7,44.0,30.11,SW,225,4.7,6.7,72,0.00,,,0.00,WUHU216HW,2013-04-21 01:20:00,
2013-04-20 18:25:00,52.6,43.8,30.11,SW,225,5.4,6.7,72,0.00,,,0.00,WUHU216HW,2013-04-21 01:25:00,
2013-04-20 18:30:00,52.6,43.8,30.11,WSW,248,3.8,5.8,72,0.00,,,0.00,WUHU216HW,2013-04-21 01:30:00,
2013-04-20 18:35:00,52.6,44.2,30.11,SW,225,4.7,5.6,73,0.00,,,0.00,WUHU216HW,2013-04-21 01:35:00,
2013-04-20 18:40:00,52.4,43.7,30.11,SW,225,5.1,6.7,72,0.00,,,0.00,WUHU216HW,2013-04-21 01:40:00,
2013-04-20 18:47:00,52.4,44.0,30.11,WSW,248,4.9,6.7,73,0.00,,,0.00,WUHU216HW,2013-04-21 01:47:00,
2013-04-20 18:52:00,52.2,44.2,30.11,WSW,248,4.5,5.4,74,0.00,,,0.00,WUHU216HW,2013-04-21 01:52:00,
2013-04-20 18:57:00,52.2,44.2,30.11,SW,225,3.8,4.9,74,0.00,,,0.00,WUHU216HW,2013-04-21 01:57:00,
2013-04-20 19:02:00,52.0,44.0,30.11,WSW,248,2.5,4.5,74,0.00,,,0.00,WUHU216HW,2013-04-21 02:02:00,
2013-04-20 19:07:00,51.8,43.8,30.11,SW,225,1.8,4.5,74,0.00,,,0.00,WUHU216HW,2013-04-21 02:07:00,
2013-04-20 19:12:00,51.8,43.8,30.11,SW,225,3.4,3.8,74,0.00,,,0.00,WUHU216HW,2013-04-21 02:12:00,
2013-04-20 19:17:00,51.8,44.2,30.11,WSW,248,3.4,3.8,75,0.00,,,0.00,WUHU216HW,2013-04-21 02:17:00,
2013-04-20 19:22:00,51.7,44.0,30.11,WSW,248,4.7,4.7,75,0.00,,,0.00,WUHU216HW,2013-04-21 02:22:00,
2013-04-20 19:27:00,51.5,43.5,30.11,SW,225,5.1,5.4,74,0.00,,,0.00,WUHU216HW,2013-04-21 02:27:00,
2013-04-20 19:32:00,51.5,43.1,30.11,SW,225,5.8,6.7,73,0.00,,,0.00,WUHU216HW,2013-04-21 02:32:00,
2013-04-20 19:37:00,51.5,43.5,30.11,SSW,203,5.4,6.7,74,0.00,,,0.00,WUHU216HW,2013-04-21 02:37:00,
2013-04-20 19:42:00,51.5,43.5,30.10,WSW,248,5.6,6.0,74,0.00,,,0.00,WUHU216HW,2013-04-21 02:42:00,
2013-04-20 19:47:00,51.5,43.5,30.10,SW,225,3.8,5.8,74,0.00,,,0.00,WUHU216HW,2013-04-21 02:47:00,
2013-04-20 19:52:00,51.3,43.7,30.11,SW,225,3.1,5.8,75,0.00,,,0.00,WUHU216HW,2013-04-21 02:52:00,
2013-04-20 19:57:00,50.9,43.7,30.10,SW,225,5.4,5.4,76,0.00,,,0.00,WUHU216HW,2013-04-21 02:57:00,
2013-04-20 20:02:00,50.9,43.3,30.10,SW,225,4.3,5.4,75,0.00,,,0.00,WUHU216HW,2013-04-21 03:02:00,
2013-04-20 20:07:00,50.8,43.1,30.10,SW,225,4.3,5.4,75,0.00,,,0.00,WUHU216HW,2013-04-21 03:07:00,
2013-04-20 20:12:00,50.8,42.8,30.11,WSW,248,3.1,7.6,74,0.00,,,0.00,WUHU216HW,2013-04-21 03:12:00,
2013-04-20 20:17:00,50.9,42.6,30.10,SW,225,5.1,7.6,73,0.00,,,0.00,WUHU216HW,2013-04-21 03:17:00,
2013-04-20 20:22:00,50.9,42.6,30.11,WSW,248,4.0,6.5,73,0.00,,,0.00,WUHU216HW,2013-04-21 03:22:00,
2013-04-20 20:27:00,50.8,42.8,30.11,SW,225,3.6,6.5,74,0.00,,,0.00,WUHU216HW,2013-04-21 03:27:00,
2013-04-20 20:32:00,50.8,42.8,30.11,SW,225,4.0,4.9,74,0.00,,,0.00,WUHU216HW,2013-04-21 03:32:00,
2013-04-20 20:37:00,50.6,42.9,30.12,WSW,248,4.0,4.9,75,0.00,,,0.00,WUHU216HW,2013-04-21 03:37:00,
2013-04-20 20:42:00,50.6,42.6,30.11,WSW,248,4.7,5.1,74,0.00,,,0.00,WUHU216HW,2013-04-21 03:42:00,
2013-04-20 20:47:00,50.6,42.6,30.12,SW,225,6.0,6.3,74,0.00,,,0.00,WUHU216HW,2013-04-21 03:47:00,
2013-04-20 20:52:00,50.6,42.6,30.12,WSW,248,4.9,6.3,74,0.00,,,0.00,WUHU216HW,2013-04-21 03:52:00,
2013-04-20 20:57:00,50.6,42.6,30.12,SW,225,5.1,6.0,74,0.00,,,0.00,WUHU216HW,2013-04-21 03:57:00,
2013-04-20 21:01:00,50.4,42.8,30.12,WSW,248,3.4,5.6,75,0.00,,,0.00,WUHU216HW,2013-04-21 04:01:00,
2013-04-20 21:06:00,50.2,42.6,30.12,WSW,248,2.9,5.4,75,0.00,,,0.00,WUHU216HW,2013-04-21 04:06:00,
2013-04-20 21:12:00,50.2,42.6,30.12,SW,225,3.6,4.5,75,0.00,,,0.00,WUHU216HW,2013-04-21 04:12:00,
2013-04-20 21:17:00,50.0,42.4,30.12,WSW,248,2.7,4.0,75,0.00,,,0.00,WUHU216HW,2013-04-21 04:17:00,
2013-04-20 21:22:00,50.0,42.4,30.12,WSW,248,3.6,4.0,75,0.00,,,0.00,WUHU216HW,2013-04-21 04:22:00,
2013-04-20 21:27:00,49.9,42.2,30.12,SW,225,3.8,4.9,75,0.00,,,0.00,WUHU216HW,2013-04-21 04:27:00,
2013-04-20 21:32:00,49.9,42.2,30.12,WSW,248,3.1,4.9,75,0.00,,,0.00,WUHU216HW,2013-04-21 04:32:00,
2013-04-20 21:37:00,49.9,42.2,30.12,SW,225,4.3,4.7,75,0.00,,,0.00,WUHU216HW,2013-04-21 04:37:00,
2013-04-20 21:42:00,49.9,42.2,30.13,SW,225,3.1,4.3,75,0.00,,,0.00,WUHU216HW,2013-04-21 04:42:00,
2013-04-20 21:47:00,49.9,42.2,30.13,SW,225,4.0,4.5,75,0.00,,,0.00,WUHU216HW,2013-04-21 04:47:00,
2013-04-20 21:52:00,49.7,42.0,30.13,SW,225,4.0,4.5,75,0.00,,,0.00,WUHU216HW,2013-04-21 04:52:00,
2013-04-20 21:57:00,49.7,42.4,30.13,SW,225,4.7,6.3,76,0.00,,,0.00,WUHU216HW,2013-04-21 04:57:00,
2013-04-20 22:02:00,49.7,42.0,30.13,WSW,248,3.4,6.3,75,0.00,,,0.00,WUHU216HW,2013-04-21 05:02:00,
2013-04-20 22:07:00,49.7,41.7,30.13,SW,225,3.4,4.7,74,0.00,,,0.00,WUHU216HW,2013-04-21 05:07:00,
2013-04-20 22:12:00,49.7,41.7,30.14,WSW,248,3.4,4.0,74,0.00,,,0.00,WUHU216HW,2013-04-21 05:12:00,
2013-04-20 22:17:00,49.5,41.9,30.13,WSW,248,3.6,4.5,75,0.00,,,0.00,WUHU216HW,2013-04-21 05:17:00,
2013-04-20 22:22:00,49.5,41.9,30.14,SW,225,4.0,4.7,75,0.00,,,0.00,WUHU216HW,2013-04-21 05:22:00,
2013-04-20 22:27:00,49.3,42.0,30.13,WSW,248,3.8,4.9,76,0.00,,,0.00,WUHU216HW,2013-04-21 05:27:00,
2013-04-20 22:32:00,49.3,42.4,30.13,SW,225,4.3,5.8,77,0.00,,,0.00,WUHU216HW,2013-04-21 05:32:00,
2013-04-20 22:37:00,49.0,41.7,30.13,SSW,203,4.7,5.8,76,0.00,,,0.00,WUHU216HW,2013-04-21 05:37:00,
2013-04-20 22:42:00,49.0,42.3,30.13,South,180,4.7,5.8,78,0.00,,,0.00,WUHU216HW,2013-04-21 05:42:00,
2013-04-20 22:47:00,49.0,42.0,30.13,SW,225,5.1,6.3,77,0.00,,,0.00,WUHU216HW,2013-04-21 05:47:00,
2013-04-20 22:52:00,49.0,41.7,30.13,SW,225,4.9,6.3,76,0.00,,,0.00,WUHU216HW,2013-04-21 05:52:00,
2013-04-20 22:57:00,48.8,41.5,30.13,SW,225,4.0,5.8,76,0.00,,,0.00,WUHU216HW,2013-04-21 05:57:00,
2013-04-20 23:02:00,48.8,42.1,30.13,SW,225,5.4,6.0,78,0.00,,,0.00,WUHU216HW,2013-04-21 06:02:00,
2013-04-20 23:07:00,48.6,41.9,30.13,SW,225,5.8,6.0,78,0.00,,,0.00,WUHU216HW,2013-04-21 06:07:00,
2013-04-20 23:12:00,48.6,41.9,30.13,SW,225,4.7,5.8,78,0.00,,,0.00,WUHU216HW,2013-04-21 06:12:00,
2013-04-20 23:17:00,48.6,41.9,30.13,SW,225,3.6,5.8,78,0.00,,,0.00,WUHU216HW,2013-04-21 06:17:00,
2013-04-20 23:22:00,48.4,41.8,30.13,SW,225,2.0,4.9,78,0.00,,,0.00,WUHU216HW,2013-04-21 06:22:00,
2013-04-20 23:27:00,48.4,42.1,30.13,WSW,248,2.5,3.4,79,0.00,,,0.00,WUHU216HW,2013-04-21 06:27:00,
2013-04-20 23:32:00,48.2,42.3,30.13,SW,225,2.5,3.4,80,0.00,,,0.00,WUHU216HW,2013-04-21 06:32:00,
2013-04-20 23:38:00,48.2,42.3,30.13,SW,225,3.8,4.5,80,0.00,,,0.00,WUHU216HW,2013-04-21 06:38:00,
2013-04-20 23:43:00,48.2,42.3,30.13,WSW,248,3.1,4.5,80,0.00,,,0.00,WUHU216HW,2013-04-21 06:43:00,
2013-04-20 23:48:00,48.2,42.3,30.13,SW,225,3.6,4.5,80,0.00,,,0.00,WUHU216HW,2013-04-21 06:48:00,
2013-04-20 23:53:00,48.1,42.1,30.13,SW,225,2.2,4.0,80,0.00,,,0.00,WUHU216HW,2013-04-21 06:53:00,
2013-04-20 23:58:00,48.1,42.1,30.13,SSW,203,3.1,4.0,80,0.00,,,0.00,WUHU216HW,2013-04-21 06:58:00,